LUCH-5A

Last updated on Sat Jun 21 2025 00:02:44 GMT+0000 (Coordinated Universal Time)

1 37951U 11074B 25171.50792722 -.00000040 00000+0 00000+0 0 9991 2 37951 7.8323 79.2274 0002687 26.7051 152.9773 1.00276410 49429
UTC large
Height (km)
Speed (km/s)
/
Latitude / Longitude
Inclination (degrees)
Orbital Period (minutes)
Azimuth
Elevation
Range (km)
Doppler Factor

Next 0 passes for location: London (51.5072 / 0.1276)

Sorry there are no passes over London.